Location: Unspecified
(0.0000°N, 0.0000°E)
Time: 09:03:29
(UTC+00:00)

ATLAS 5 CENTAUR DEB - Pass Details

Date: 17 February 2026
Orbit: 8295 x 34941 km, 19.8° (Epoch: 28 February)

Event Time Altitude Azimuth Distance (km) Brightness Sun altitude
Rises 13:36:19 0° 288° (WNW) 13,280 ? 66.4°
Reaches altitude 10° 13:44:11 10° 287° (WNW) 12,148 ? 64.7°
Maximum altitude 23:13:23 67° 97° (E) 28,560 ? -70.9°
Drops below altitude 10° 01:52:03 10° 68° (ENE) 15,417 ? -63.0°
Sets 02:01:57 0° 69° (ENE) 15,405 ? -60.8°
